DW3200 Weather Reports


time (UTC)temp
F
wind
direction
speed
knots
gust
knots
rain 1hr
in
rain 24hr
in
rain mn
in
humidity
%
barometer
mb
20260905213027 72 276 1.7 0.0 0.00 0.00 0.00 30 1014.8
20260905211539 71 288 3.5 0.0 0.00 0.00 0.00 30 1015.0
20260905210006 72 304 1.7 0.0 0.00 0.00 0.00 30 1015.2
20260905204502 70 244 0.9 0.0 0.00 0.00 0.00 36 1015.3
20260905203044 69 219 2.6 0.0 0.00 0.00 0.00 37 1015.3
20260905201603 70 78 0.0 0.0 0.00 0.00 0.00 38 1015.6
20260905200042 69 76 0.9 0.0 0.00 0.00 0.00 42 1015.7
20260905194524 68 69 1.7 0.0 0.00 0.00 0.00 46 1016.0
20260905193022 67 355 0.9 0.0 0.00 0.00 0.00 47 1016.1
20260905191519 67 324 0.9 0.0 0.00 0.00 0.00 51 1016.3
20260905190016 65 325 0.9 0.0 0.00 0.00 0.00 55 1016.5
20260905184514 65 322 0.9 0.0 0.00 0.00 0.00 55 1016.6
20260905183012 64 323 0.9 0.0 0.00 0.00 0.00 57 1016.7
20260905181509 64 331 0.0 0.0 0.00 0.00 0.00 55 1016.9
20260905180059 62 332 0.9 0.0 0.00 0.00 0.00 59 1016.9
20260905174559 62 9 0.0 0.0 0.00 0.00 0.00 61 1017.0
20260905173027 62 9 0.0 0.0 0.00 0.00 0.00 64 1017.2
20260905171538 60 9 0.0 0.0 0.00 0.00 0.00 68 1017.3
20260905170004 59 10 0.0 0.0 0.00 0.00 0.00 72 1017.4
20260905164600 56 10 0.0 0.0 0.00 0.00 0.00 79 1017.4
20260905163057 56 10 0.0 0.0 0.00 0.00 0.00 85 1017.4
20260905161540 55 10 0.0 0.0 0.00 0.00 0.00 90 1017.4
20260905160044 53 10 0.0 0.0 0.00 0.00 0.00 93 1017.4
20260905154518 51 10 0.0 0.0 0.00 0.00 0.00 94 1017.6
20260905153010 48 10 0.0 0.0 0.00 0.00 0.00 94 1017.8
20260905151546 45 10 0.0 0.0 0.00 0.00 0.00 94 1017.9
20260905150043 44 10 0.0 0.0 0.00 0.00 0.00 94 1017.8
20260905144535 41 10 0.0 0.0 0.00 0.00 0.00 93 1017.7
20260905143022 42 10 0.0 0.0 0.00 0.00 0.00 93 1017.9
20260905141502 41 10 0.0 0.0 0.00 0.00 0.00 94 1017.7
20260905140059 39 10 0.0 0.0 0.00 0.00 0.07 93 1017.6
20260905134544 37 10 0.0 0.0 0.00 0.00 0.07 94 1017.5
20260905133037 36 10 0.0 0.0 0.00 0.00 0.07 93 1017.3
20260905131517 36 10 0.0 0.0 0.00 0.00 0.07 93 1017.2
20260905130018 36 10 0.0 0.0 0.00 0.00 0.07 93 1017.0
20260905124556 37 10 0.0 0.0 0.00 0.00 0.07 93 1016.8
20260905123055 37 10 0.0 0.0 0.00 0.00 0.07 93 1016.7
20260905121537 37 10 0.0 0.0 0.00 0.00 0.07 93 1016.7
20260905120038 37 10 0.0 0.0 0.00 0.00 0.07 92 1016.8
20260905114517 38 10 0.0 0.0 0.00 0.00 0.07 92 1016.5
20260905113012 39 10 0.0 0.0 0.00 0.00 0.07 92 1016.3
20260905111605 39 10 0.0 0.0 0.00 0.00 0.07 92 1016.1
20260905110051 39 10 0.0 0.0 0.00 0.00 0.07 92 1015.8
20260905104543 39 10 0.0 0.0 0.00 0.00 0.07 92 1015.7
20260905103036 39 10 0.0 0.0 0.00 0.00 0.07 92 1015.8
20260905101514 40 10 0.0 0.0 0.00 0.00 0.07 92 1015.9
20260905100013 40 10 0.0 0.0 0.00 0.00 0.07 92 1015.7
20260905094606 40 10 0.0 0.0 0.00 0.00 0.07 92 1015.7
20260905093054 40 10 0.0 0.0 0.00 0.00 0.07 92 1015.7
20260905091535 40 10 0.0 0.0 0.00 0.00 0.07 91 1015.6
20260905090033 42 10 0.0 0.0 0.00 0.00 0.07 91 1015.6
20260905084522 42 10 0.0 0.0 0.00 0.00 0.07 91 1015.4
20260905083016 42 10 0.0 0.0 0.00 0.00 0.07 91 1015.2
20260905081603 42 10 0.0 0.0 0.00 0.00 0.07 90 1015.1
20260905080057 43 10 0.0 0.0 0.00 0.00 0.07 91 1015.4
20260905074533 43 10 0.0 0.0 0.00 0.00 0.07 90 1015.1
20260905073041 44 10 0.0 0.0 0.00 0.00 0.07 90 1014.9
20260905071515 44 10 0.0 0.0 0.00 0.00 0.07 90 1015.0
20260905070014 43 10 0.0 0.0 0.00 0.00 0.07 89 1014.5
20260905064557 43 10 0.0 0.0 0.00 0.00 0.07 89 1014.7
20260905063052 44 10 0.0 0.0 0.00 0.00 0.07 89 1014.7
20260905061550 45 10 0.0 0.0 0.00 0.00 0.07 88 1014.7
20260905060033 46 10 0.0 0.0 0.00 0.00 0.07 88 1014.8
20260905054517 46 10 0.0 0.0 0.00 0.00 0.07 87 1014.2
20260905053020 47 10 0.0 0.0 0.00 0.00 0.07 87 1014.4
20260905051557 47 10 0.0 0.0 0.00 0.00 0.07 86 1014.5
20260905050057 48 10 0.0 0.0 0.00 0.00 0.07 86 1014.6
20260905044540 48 10 0.0 0.0 0.00 0.00 0.07 84 1014.7
20260905043105 49 10 0.0 0.0 0.00 0.00 0.07 83 1014.9
20260905041522 50 10 0.0 0.0 0.00 0.00 0.07 82 1014.9
20260905040026 51 10 0.0 0.0 0.00 0.00 0.07 80 1015.0
20260905034511 51 10 0.0 0.0 0.00 0.00 0.07 79 1014.8
20260905033008 52 10 0.0 0.0 0.00 0.00 0.07 77 1014.7
20260905031508 53 10 0.0 0.0 0.00 0.00 0.07 74 1014.7
20260905030008 55 10 0.0 0.0 0.00 0.00 0.07 70 1014.7
20260905024508 56 10 0.0 0.0 0.00 0.00 0.07 67 1014.5
20260905023007 58 10 0.0 0.0 0.00 0.00 0.07 64 1014.4
20260905021507 59 10 0.0 0.0 0.00 0.00 0.07 62 1014.3
20260905020006 60 10 0.0 0.0 0.00 0.00 0.07 60 1014.1
20260905014547 60 10 0.0 0.0 0.00 0.00 0.07 58 1014.3
20260905013056 61 10 0.0 0.0 0.00 0.00 0.07 56 1014.4
20260905011530 61 10 0.9 0.0 0.00 0.00 0.07 53 1014.2
20260905010031 61 10 0.9 0.0 0.00 0.00 0.07 54 1014.2
20260905004512 62 294 0.9 0.0 0.00 0.00 0.07 49 1014.1
20260905003018 62 294 0.9 0.0 0.00 0.00 0.07 49 1014.3
20260905001557 62 293 0.0 0.0 0.00 0.00 0.07 50 1014.2
20260905000056 62 293 1.7 0.0 0.00 0.00 0.07 48 1014.1
20260904234543 63 286 1.7 0.0 0.00 0.00 0.07 46 1014.0
20260904233037 62 284 0.0 0.0 0.00 0.00 0.07 49 1013.9
20260904231522 62 281 0.9 0.0 0.00 0.00 0.07 51 1013.7
20260904230022 63 280 1.7 0.0 0.00 0.00 0.07 50 1013.7
20260904224559 64 277 0.9 0.0 0.00 0.00 0.07 45 1014.0
20260904223100 64 279 0.0 0.0 0.00 0.00 0.07 43 1013.7
20260904221542 63 279 0.9 0.0 0.00 0.00 0.07 44 1013.7
20260904220105 63 279 0.9 0.0 0.00 0.00 0.07 46 1013.5